This is the latest recevied weather packets stored in our database for station/object IU5JAE-13. If no packets are shown the sender has not sent any weather packets the latest 10 day(s).
| Time | Temp. | Humidity | Pressure | Rain* | Wind** | Luminosity | Snow |
|---|---|---|---|---|---|---|---|
| 1787938832 | 27.22° C | 83% | 1016.9 hPa | 0 mm | - | 11 W/m² | - |
| 1787938230 | 27.78° C | 81% | 1016.8 hPa | 0 mm | - | 19 W/m² | - |
| 1787937628 | 27.78° C | 80% | 1016.8 hPa | 0 mm | - | 30 W/m² | - |
| 1787937025 | 28.33° C | 78% | 1016.6 hPa | 0 mm | - | 45 W/m² | - |
| 1787936423 | 28.33° C | 77% | 1017 hPa | 0 mm | - | 63 W/m² | - |
| 1787935820 | 28.33° C | 75% | 1016.8 hPa | 0 mm | - | 62 W/m² | - |
| 1787935218 | 28.33° C | 71% | 1016.8 hPa | 0 mm | - | 54 W/m² | - |
| 1787934615 | 28.33° C | 71% | 1016.9 hPa | 0 mm | - | 64 W/m² | - |
| 1787934033 | 28.89° C | 69% | 1016.8 hPa | 0 mm | - | 87 W/m² | - |
| 1787933431 | 28.89° C | 68% | 1016.8 hPa | 0 mm | - | 111 W/m² | - |
| 1787932828 | 29.44° C | 66% | 1016.9 hPa | 0 mm | - | 121 W/m² | - |
| 1787932226 | 29.44° C | 66% | 1017 hPa | 0 mm | - | 125 W/m² | - |
| 1787931623 | 29.44° C | 66% | 1017 hPa | 0 mm | - | 142 W/m² | - |
| 1787931022 | 30.56° C | 65% | 1017 hPa | 0 mm | - | 157 W/m² | - |
| 1787930418 | 30° C | 66% | 1016.9 hPa | 0 mm | - | 193 W/m² | - |
| 1787929816 | 30° C | 65% | 1017 hPa | 0 mm | - | 210 W/m² | - |
| 1787929234 | 30.56° C | 68% | 1017.3 hPa | 0 mm | - | 225 W/m² | - |
| 1787928631 | 31.11° C | 65% | 1017.3 hPa | 0 mm | - | 239 W/m² | - |
| 1787928030 | 31.11° C | 63% | 1017.4 hPa | 0 mm | - | 256 W/m² | - |
| 1787927427 | 30.56° C | 65% | 1017.4 hPa | 0 mm | - | 272 W/m² | - |
| 1787926824 | 30° C | 69% | 1017.6 hPa | 0 mm | - | 292 W/m² | - |
| 1787926222 | 30° C | 69% | 1017.6 hPa | 0 mm | - | 311 W/m² | - |
| 1787925619 | 30.56° C | 69% | 1017.7 hPa | 0 mm | - | 316 W/m² | - |
| 1787925017 | 30.56° C | 68% | 1017.9 hPa | 0 mm | - | 341 W/m² | - |
| 1787924434 | 31.11° C | 65% | 1018.1 hPa | 0 mm | - | 342 W/m² | - |
* Rain latest hour (hover to see other rain measurements)
** Current wind speed in m/s (hover to see current wind gust speed)